JTM125 EPWA-EDDF

Flight info

Callsign JTM125
Flight time 2h 3m
Altitude 36000
Route LOLSI T174 INDIG KORUP SULED ROBEL T178 KERAX
Aircraft B738/M-SDE2FGHIRWY/L

Departure

Time 2026-05-05 11:25
Airport Warsaw Chopin Airport (EPWA)

Arrival

Time 2026-05-05 13:29
Airport Frankfurt Main Airport (EDDF)
Time Latitude Longitude Altitude Speed Heading
2026-05-05 11:11 52.17147 20.97009 337 ft 0 kts 62°
2026-05-05 11:17 52.17140 20.96989 336 ft 2 kts 62°
2026-05-05 11:17 52.17131 20.96961 335 ft 2 kts 62°
2026-05-05 11:17 52.17121 20.96929 335 ft 3 kts 62°
2026-05-05 11:17 52.17112 20.96903 334 ft 0 kts 62°
2026-05-05 11:18 52.17112 20.96902 334 ft 0 kts 62°
2026-05-05 11:19 52.17112 20.96903 334 ft 0 kts 66°
2026-05-05 11:19 52.17101 20.96918 334 ft 3 kts 159°
2026-05-05 11:20 52.17072 20.96937 334 ft 6 kts 159°
2026-05-05 11:20 52.17022 20.96969 333 ft 9 kts 157°
2026-05-05 11:20 52.17004 20.96981 333 ft 0 kts 155°
2026-05-05 11:21 52.16965 20.97014 334 ft 11 kts 152°
2026-05-05 11:21 52.16897 20.97076 335 ft 10 kts 151°
2026-05-05 11:21 52.16837 20.97129 336 ft 9 kts 152°
2026-05-05 11:21 52.16782 20.97177 337 ft 8 kts 150°
2026-05-05 11:22 52.16730 20.97224 337 ft 8 kts 151°
2026-05-05 11:22 52.16678 20.97272 337 ft 8 kts 151°
2026-05-05 11:22 52.16626 20.97319 337 ft 8 kts 151°
2026-05-05 11:22 52.16566 20.97416 337 ft 16 kts 121°
2026-05-05 11:23 52.16505 20.97617 337 ft 23 kts 114°
2026-05-05 11:23 52.16426 20.97893 335 ft 27 kts 115°
2026-05-05 11:23 52.16357 20.98143 337 ft 19 kts 113°
2026-05-05 11:23 52.16302 20.98345 336 ft 19 kts 115°
2026-05-05 11:24 52.16205 20.98457 334 ft 19 kts 199°
2026-05-05 11:24 52.16098 20.98341 334 ft 16 kts 259°
2026-05-05 11:24 52.16150 20.98211 334 ft 13 kts 296°
2026-05-05 11:24 52.16192 20.98072 334 ft 15 kts 295°
2026-05-05 11:25 52.16317 20.97625 335 ft 88 kts 295°
2026-05-05 11:25 52.16700 20.96271 336 ft 170 kts 295°
2026-05-05 11:25 52.17257 20.94303 670 ft 209 kts 291°
2026-05-05 11:25 52.17815 20.92070 1695 ft 221 kts 289°
2026-05-05 11:26 52.18392 20.89706 2675 ft 239 kts 290°
2026-05-05 11:26 52.18942 20.87174 3767 ft 248 kts 276°
2026-05-05 11:26 52.18771 20.84397 4817 ft 255 kts 251°
2026-05-05 11:26 52.18401 20.81594 5852 ft 263 kts 262°
2026-05-05 11:27 52.18471 20.78493 5999 ft 276 kts 277°
2026-05-05 11:27 52.18892 20.75479 5996 ft 271 kts 282°
2026-05-05 11:27 52.19396 20.72532 5991 ft 271 kts 282°
2026-05-05 11:27 52.19675 20.69549 5987 ft 266 kts 264°
2026-05-05 11:28 52.19246 20.66684 6002 ft 263 kts 247°
2026-05-05 11:28 52.18520 20.63931 5992 ft 263 kts 245°
2026-05-05 11:28 52.17806 20.61210 5995 ft 263 kts 246°
2026-05-05 11:28 52.17141 20.58431 5990 ft 263 kts 248°
2026-05-05 11:29 52.16517 20.55656 5991 ft 264 kts 248°
2026-05-05 11:29 52.15892 20.52819 6007 ft 264 kts 248°
2026-05-05 11:29 52.15363 20.49966 5994 ft 266 kts 257°
2026-05-05 11:29 52.15259 20.46962 5995 ft 269 kts 270°
2026-05-05 11:30 52.15419 20.43922 6000 ft 269 kts 273°
2026-05-05 11:30 52.15615 20.40931 5997 ft 268 kts 273°
2026-05-05 11:30 52.15788 20.37885 5992 ft 268 kts 272°
2026-05-05 11:30 52.15931 20.34839 6109 ft 283 kts 270°
2026-05-05 11:31 52.16063 20.31645 7070 ft 288 kts 270°
2026-05-05 11:31 52.16195 20.28312 7767 ft 303 kts 270°
2026-05-05 11:31 52.16330 20.24831 8436 ft 318 kts 270°
2026-05-05 11:31 52.16472 20.21161 9084 ft 333 kts 270°
2026-05-05 11:32 52.16621 20.17340 9804 ft 345 kts 270°
2026-05-05 11:32 52.16773 20.13472 10669 ft 352 kts 271°
2026-05-05 11:32 52.16931 20.09452 11632 ft 356 kts 271°
2026-05-05 11:32 52.17084 20.05482 12578 ft 360 kts 271°
2026-05-05 11:33 52.17240 20.01427 13515 ft 365 kts 271°
2026-05-05 11:33 52.17398 19.97265 14484 ft 370 kts 271°
2026-05-05 11:33 52.17552 19.93098 15421 ft 375 kts 271°
2026-05-05 11:33 52.17654 19.88867 16367 ft 379 kts 269°
2026-05-05 11:34 52.17562 19.84601 17278 ft 383 kts 264°
2026-05-05 11:34 52.17286 19.80300 18119 ft 388 kts 262°
2026-05-05 11:34 52.16902 19.75913 18962 ft 393 kts 260°
2026-05-05 11:34 52.16483 19.71544 19770 ft 398 kts 260°
2026-05-05 11:35 52.16053 19.67107 20582 ft 403 kts 260°
2026-05-05 11:35 52.15615 19.62549 21376 ft 407 kts 261°
2026-05-05 11:35 52.15186 19.58010 22127 ft 412 kts 261°
2026-05-05 11:35 52.14754 19.53395 22846 ft 418 kts 261°
2026-05-05 11:36 52.14320 19.48729 23592 ft 422 kts 261°
2026-05-05 11:36 52.13884 19.44043 24343 ft 425 kts 261°
2026-05-05 11:36 52.13438 19.39229 25081 ft 430 kts 261°
2026-05-05 11:36 52.12991 19.34428 25692 ft 435 kts 260°
2026-05-05 11:37 52.12537 19.29567 26584 ft 435 kts 260°
2026-05-05 11:37 52.12091 19.24803 27699 ft 428 kts 260°
2026-05-05 11:37 52.11648 19.20104 28697 ft 423 kts 260°
2026-05-05 11:37 52.11205 19.15426 29556 ft 420 kts 259°
2026-05-05 11:38 52.10763 19.10772 30363 ft 417 kts 259°
2026-05-05 11:38 52.10318 19.06127 31242 ft 413 kts 259°
2026-05-05 11:38 52.09881 19.01575 32113 ft 409 kts 259°
2026-05-05 11:38 52.09441 18.97011 33025 ft 402 kts 259°
2026-05-05 11:39 52.09005 18.92511 33726 ft 401 kts 259°
2026-05-05 11:39 52.08567 18.88013 34328 ft 400 kts 259°
2026-05-05 11:39 52.08126 18.83504 34923 ft 399 kts 259°
2026-05-05 11:39 52.07691 18.79064 35308 ft 401 kts 259°
2026-05-05 11:40 52.07249 18.74590 35426 ft 410 kts 259°
2026-05-05 11:40 52.06794 18.69993 35627 ft 416 kts 259°
2026-05-05 11:40 52.06332 18.65341 35810 ft 421 kts 259°
2026-05-05 11:41 52.05384 18.55841 35823 ft 426 kts 259°
2026-05-05 11:41 52.04438 18.46385 35818 ft 425 kts 259°
2026-05-05 11:42 52.03487 18.36967 35825 ft 426 kts 259°
2026-05-05 11:42 52.02522 18.27491 35816 ft 425 kts 259°
2026-05-05 11:43 52.01555 18.18092 35816 ft 425 kts 259°
2026-05-05 11:43 52.00578 18.08660 35810 ft 425 kts 259°
2026-05-05 11:44 51.99592 17.99243 35813 ft 425 kts 259°
2026-05-05 11:44 51.98552 17.89799 35816 ft 425 kts 258°
2026-05-05 11:45 51.97477 17.80407 35815 ft 425 kts 258°
2026-05-05 11:45 51.96390 17.70986 35812 ft 424 kts 258°
2026-05-05 11:46 51.95297 17.61536 35813 ft 425 kts 258°
2026-05-05 11:46 51.94202 17.52112 35820 ft 424 kts 259°
2026-05-05 11:47 51.93105 17.42723 35829 ft 424 kts 259°
2026-05-05 11:47 51.92001 17.33323 35830 ft 423 kts 258°
2026-05-05 11:48 51.90348 17.19411 35829 ft 423 kts 258°
2026-05-05 11:48 51.89219 17.10030 35827 ft 423 kts 258°
2026-05-05 11:49 51.88089 17.00664 35830 ft 422 kts 258°
2026-05-05 11:49 51.86970 16.91405 35826 ft 421 kts 258°
2026-05-05 11:50 51.85833 16.82070 35827 ft 423 kts 258°
2026-05-05 11:50 51.84697 16.72807 35825 ft 421 kts 258°
2026-05-05 11:51 51.83547 16.63516 35825 ft 424 kts 258°
2026-05-05 11:51 51.82386 16.54207 35824 ft 421 kts 258°
2026-05-05 11:52 51.81226 16.44984 35824 ft 423 kts 258°
2026-05-05 11:52 51.80047 16.35654 35821 ft 422 kts 258°
2026-05-05 11:53 51.78873 16.26433 35820 ft 421 kts 258°
2026-05-05 11:53 51.77683 16.17138 35819 ft 422 kts 257°
2026-05-05 11:54 51.76491 16.07898 35821 ft 421 kts 257°
2026-05-05 11:54 51.75297 15.98699 35813 ft 422 kts 257°
2026-05-05 11:55 51.74095 15.89504 35817 ft 421 kts 257°
2026-05-05 11:55 51.72880 15.80267 35814 ft 421 kts 257°
2026-05-05 11:56 51.71661 15.71059 35820 ft 423 kts 257°
2026-05-05 11:56 51.70423 15.61781 35822 ft 423 kts 257°
2026-05-05 11:57 51.69181 15.52509 35823 ft 423 kts 258°
2026-05-05 11:57 51.67933 15.43258 35824 ft 421 kts 258°
2026-05-05 11:58 51.66684 15.34045 35826 ft 422 kts 257°
2026-05-05 11:58 51.65434 15.24880 35815 ft 421 kts 257°
2026-05-05 11:59 51.64169 15.15689 35819 ft 422 kts 257°
2026-05-05 11:59 51.62903 15.06547 35817 ft 421 kts 257°
2026-05-05 12:00 51.61613 14.97301 35820 ft 421 kts 257°
2026-05-05 12:00 51.60321 14.88086 35821 ft 420 kts 257°
2026-05-05 12:01 51.59032 14.78946 35829 ft 422 kts 257°
2026-05-05 12:01 51.57724 14.69852 35843 ft 420 kts 256°
2026-05-05 12:02 51.56303 14.60715 35841 ft 419 kts 256°
2026-05-05 12:02 51.54862 14.51701 35836 ft 419 kts 255°
2026-05-05 12:03 51.53418 14.42678 35840 ft 417 kts 255°
2026-05-05 12:03 51.51981 14.33697 35844 ft 417 kts 255°
2026-05-05 12:04 51.50520 14.24581 35845 ft 416 kts 254°
2026-05-05 12:04 51.49074 14.15600 35844 ft 416 kts 254°
2026-05-05 12:05 51.47625 14.06649 35846 ft 415 kts 254°
2026-05-05 12:05 51.46160 13.97655 35853 ft 416 kts 254°
2026-05-05 12:06 51.44701 13.88739 35844 ft 415 kts 254°
2026-05-05 12:06 51.43224 13.79759 35844 ft 413 kts 254°
2026-05-05 12:07 51.41753 13.70870 35846 ft 414 kts 254°
2026-05-05 12:07 51.40265 13.61920 35840 ft 416 kts 255°
2026-05-05 12:08 51.38775 13.52992 35834 ft 413 kts 254°
2026-05-05 12:08 51.37283 13.44104 35838 ft 415 kts 255°
2026-05-05 12:09 51.35783 13.35222 35836 ft 415 kts 254°
2026-05-05 12:09 51.34278 13.26345 35834 ft 414 kts 253°
2026-05-05 12:10 51.32763 13.17463 35834 ft 414 kts 253°
2026-05-05 12:10 51.31252 13.08650 35833 ft 413 kts 254°
2026-05-05 12:11 51.29720 12.99754 35837 ft 415 kts 254°
2026-05-05 12:11 51.28184 12.90881 35839 ft 414 kts 253°
2026-05-05 12:12 51.26634 12.81959 35839 ft 414 kts 253°
2026-05-05 12:12 51.25096 12.73154 35835 ft 413 kts 253°
2026-05-05 12:13 51.23550 12.64351 35830 ft 414 kts 253°
2026-05-05 12:13 51.21992 12.55532 35833 ft 414 kts 253°
2026-05-05 12:14 51.20426 12.46712 35837 ft 413 kts 253°
2026-05-05 12:14 51.18856 12.37916 35835 ft 414 kts 253°
2026-05-05 12:15 51.17277 12.29103 35835 ft 415 kts 252°
2026-05-05 12:15 51.15715 12.20277 35837 ft 415 kts 254°
2026-05-05 12:16 51.14417 12.11353 35835 ft 415 kts 256°
2026-05-05 12:16 51.13215 12.02368 35836 ft 416 kts 256°
2026-05-05 12:17 51.11983 11.93317 35831 ft 417 kts 256°
2026-05-05 12:17 51.10735 11.84370 35834 ft 416 kts 256°
2026-05-05 12:18 51.09466 11.75422 35839 ft 414 kts 256°
2026-05-05 12:18 51.08194 11.66551 35837 ft 417 kts 255°
2026-05-05 12:19 51.06907 11.57623 35841 ft 415 kts 255°
2026-05-05 12:19 51.05611 11.48702 35839 ft 415 kts 255°
2026-05-05 12:20 51.04308 11.39783 35836 ft 415 kts 255°
2026-05-05 12:20 51.02988 11.30812 35838 ft 414 kts 255°
2026-05-05 12:21 51.01677 11.21939 35846 ft 415 kts 255°
2026-05-05 12:21 51.00351 11.13024 35842 ft 415 kts 255°
2026-05-05 12:22 50.99023 11.04143 35847 ft 414 kts 255°
2026-05-05 12:22 50.97690 10.95285 35846 ft 414 kts 254°
2026-05-05 12:23 50.96355 10.86458 35842 ft 415 kts 254°
2026-05-05 12:23 50.95002 10.77567 35834 ft 414 kts 254°
2026-05-05 12:24 50.93649 10.68716 35821 ft 415 kts 254°
2026-05-05 12:24 50.92286 10.59881 35819 ft 414 kts 253°
2026-05-05 12:25 50.90305 10.51366 35819 ft 413 kts 240°
2026-05-05 12:25 50.86767 10.44313 35821 ft 412 kts 224°
2026-05-05 12:26 50.82208 10.38805 35820 ft 414 kts 211°
2026-05-05 12:26 50.76986 10.35028 35819 ft 416 kts 205°
2026-05-05 12:27 50.71581 10.31753 35821 ft 417 kts 203°
2026-05-05 12:27 50.66534 10.27452 35819 ft 412 kts 220°
2026-05-05 12:28 50.62877 10.20609 35819 ft 414 kts 236°
2026-05-05 12:28 50.59998 10.12790 35765 ft 408 kts 239°
2026-05-05 12:29 50.58667 10.08928 35516 ft 399 kts 240°
2026-05-05 12:29 50.57356 10.05095 35101 ft 394 kts 239°
2026-05-05 12:29 50.56063 10.01322 34486 ft 393 kts 239°
2026-05-05 12:29 50.54830 9.97517 33853 ft 392 kts 243°
2026-05-05 12:30 50.53815 9.93599 33247 ft 391 kts 247°
2026-05-05 12:30 50.52970 9.89552 32668 ft 389 kts 250°
2026-05-05 12:30 50.52216 9.85485 32028 ft 388 kts 251°
2026-05-05 12:30 50.51496 9.81428 31448 ft 385 kts 251°
2026-05-05 12:31 50.50799 9.77451 30907 ft 381 kts 251°
2026-05-05 12:31 50.50088 9.73418 30272 ft 380 kts 251°
2026-05-05 12:31 50.49401 9.69447 29642 ft 379 kts 252°
2026-05-05 12:31 50.48728 9.65489 29054 ft 377 kts 252°
2026-05-05 12:32 50.48056 9.61522 28429 ft 376 kts 252°
2026-05-05 12:32 50.47390 9.57604 27837 ft 374 kts 252°
2026-05-05 12:32 50.46698 9.53709 27293 ft 370 kts 251°
2026-05-05 12:32 50.45978 9.49836 26714 ft 368 kts 251°
2026-05-05 12:33 50.45256 9.46041 26117 ft 366 kts 251°
2026-05-05 12:33 50.44532 9.42255 25534 ft 365 kts 251°
2026-05-05 12:33 50.43808 9.38469 24986 ft 362 kts 251°
2026-05-05 12:33 50.43090 9.34715 24432 ft 360 kts 250°
2026-05-05 12:34 50.42376 9.30980 23881 ft 357 kts 251°
2026-05-05 12:34 50.41666 9.27264 23301 ft 356 kts 251°
2026-05-05 12:34 50.40948 9.23572 22775 ft 354 kts 250°
2026-05-05 12:34 50.40165 9.19975 22265 ft 350 kts 248°
2026-05-05 12:35 50.39329 9.16399 21767 ft 347 kts 247°
2026-05-05 12:35 50.38500 9.12927 21238 ft 345 kts 247°
2026-05-05 12:35 50.37664 9.09430 20749 ft 342 kts 247°
2026-05-05 12:35 50.36840 9.05951 20211 ft 340 kts 247°
2026-05-05 12:36 50.36027 9.02490 19709 ft 337 kts 247°
2026-05-05 12:36 50.35232 8.99095 19188 ft 335 kts 247°
2026-05-05 12:36 50.34435 8.95682 18685 ft 333 kts 247°
2026-05-05 12:36 50.33655 8.92342 18201 ft 330 kts 247°
2026-05-05 12:37 50.32868 8.88970 17637 ft 330 kts 247°
2026-05-05 12:37 50.32048 8.85622 17099 ft 326 kts 242°
2026-05-05 12:37 50.30701 8.82864 16475 ft 322 kts 217°
2026-05-05 12:37 50.28733 8.81422 15879 ft 318 kts 189°
2026-05-05 12:38 50.26555 8.81604 15324 ft 316 kts 163°
2026-05-05 12:38 50.24585 8.83084 14803 ft 314 kts 147°
2026-05-05 12:38 50.22857 8.85101 14331 ft 309 kts 142°
2026-05-05 12:38 50.21207 8.87140 14081 ft 299 kts 139°
2026-05-05 12:39 50.20005 8.89723 13834 ft 292 kts 112°
2026-05-05 12:39 50.19809 8.92813 13830 ft 292 kts 81°
2026-05-05 12:39 50.20541 8.95748 13804 ft 295 kts 63°
2026-05-05 12:39 50.21612 8.98444 13544 ft 290 kts 58°
2026-05-05 12:40 50.22749 9.01061 13038 ft 292 kts 58°
2026-05-05 12:40 50.23887 9.03659 12570 ft 293 kts 57°
2026-05-05 12:40 50.25028 9.06284 12178 ft 291 kts 59°
2026-05-05 12:40 50.26045 9.09010 11759 ft 289 kts 64°
2026-05-05 12:41 50.26944 9.11750 11364 ft 287 kts 65°
2026-05-05 12:41 50.27829 9.14533 10967 ft 285 kts 65°
2026-05-05 12:41 50.28702 9.17300 10833 ft 281 kts 65°
2026-05-05 12:41 50.29565 9.20038 10825 ft 284 kts 66°
2026-05-05 12:42 50.30303 9.22861 10766 ft 280 kts 74°
2026-05-05 12:42 50.30835 9.25771 10396 ft 278 kts 77°
2026-05-05 12:42 50.31288 9.28736 9952 ft 278 kts 83°
2026-05-05 12:42 50.31348 9.31687 9602 ft 274 kts 97°
2026-05-05 12:43 50.30937 9.34562 9202 ft 270 kts 115°
2026-05-05 12:43 50.29933 9.36915 9066 ft 256 kts 135°
2026-05-05 12:43 50.28588 9.38653 8895 ft 246 kts 148°
2026-05-05 12:43 50.27068 9.39833 8620 ft 242 kts 161°
2026-05-05 12:44 50.25429 9.40131 8256 ft 242 kts 190°
2026-05-05 12:44 50.23906 9.39072 7916 ft 243 kts 217°
2026-05-05 12:44 50.22777 9.37151 7602 ft 244 kts 236°
2026-05-05 12:44 50.22058 9.34758 7390 ft 239 kts 253°
2026-05-05 12:45 50.21971 9.32236 7295 ft 230 kts 277°
2026-05-05 12:45 50.22291 9.29831 7118 ft 225 kts 275°
2026-05-05 12:45 50.22175 9.27460 6855 ft 222 kts 251°
2026-05-05 12:45 50.21652 9.25214 6590 ft 220 kts 246°
2026-05-05 12:46 50.21084 9.23010 6317 ft 220 kts 248°
2026-05-05 12:46 50.20552 9.20779 6078 ft 218 kts 249°
2026-05-05 12:46 50.20041 9.18537 5824 ft 218 kts 250°
2026-05-05 12:46 50.19539 9.16337 5582 ft 217 kts 250°
2026-05-05 12:47 50.19024 9.14113 5329 ft 216 kts 250°
2026-05-05 12:47 50.18511 9.11915 5084 ft 215 kts 250°
2026-05-05 12:47 50.18001 9.09773 4985 ft 212 kts 250°
2026-05-05 12:47 50.17493 9.07591 4992 ft 213 kts 250°
2026-05-05 12:48 50.16992 9.05408 4985 ft 214 kts 250°
2026-05-05 12:48 50.16486 9.03223 4986 ft 214 kts 250°
2026-05-05 12:48 50.15986 9.01079 4985 ft 214 kts 250°
2026-05-05 12:48 50.15476 8.98881 4983 ft 214 kts 250°
2026-05-05 12:49 50.14972 8.96715 4985 ft 214 kts 250°
2026-05-05 12:49 50.14460 8.94529 4991 ft 213 kts 250°
2026-05-05 12:49 50.13955 8.92380 4983 ft 208 kts 249°
2026-05-05 12:49 50.13453 8.90366 4981 ft 195 kts 247°
2026-05-05 12:50 50.12946 8.88479 4990 ft 182 kts 248°
2026-05-05 12:50 50.12491 8.86658 4940 ft 180 kts 249°
2026-05-05 12:50 50.12054 8.84814 4679 ft 185 kts 250°
2026-05-05 12:50 50.11608 8.82922 4411 ft 187 kts 250°
2026-05-05 12:51 50.11162 8.81028 4145 ft 184 kts 250°
2026-05-05 12:51 50.10721 8.79162 3815 ft 184 kts 250°
2026-05-05 12:51 50.10300 8.77387 3590 ft 169 kts 251°
2026-05-05 12:51 50.09903 8.75708 3350 ft 159 kts 251°
2026-05-05 12:52 50.09548 8.74213 3198 ft 141 kts 251°
2026-05-05 12:52 50.09213 8.72796 2935 ft 135 kts 251°
2026-05-05 12:52 50.08896 8.71461 2771 ft 131 kts 251°
2026-05-05 12:52 50.08578 8.70118 2616 ft 132 kts 251°
2026-05-05 12:53 50.08264 8.68795 2422 ft 130 kts 250°
2026-05-05 12:53 50.07951 8.67480 2254 ft 130 kts 250°
2026-05-05 12:53 50.07639 8.66165 2080 ft 129 kts 250°
2026-05-05 12:53 50.07321 8.64830 1905 ft 131 kts 249°
2026-05-05 12:54 50.06692 8.62210 1561 ft 130 kts 250°
2026-05-05 12:54 50.06382 8.60889 1389 ft 130 kts 249°
2026-05-05 12:54 50.06062 8.59585 1223 ft 129 kts 248°
2026-05-05 12:55 50.05738 8.58276 1023 ft 132 kts 249°
2026-05-05 12:55 50.05462 8.56913 883 ft 131 kts 252°
2026-05-05 12:55 50.05127 8.55585 717 ft 133 kts 243°
2026-05-05 12:55 50.04790 8.54266 547 ft 133 kts 251°
2026-05-05 12:56 50.04453 8.52939 385 ft 132 kts 253°
2026-05-05 12:56 50.04151 8.51520 1101 ft 143 kts 255°
2026-05-05 12:56 50.03909 8.50075 2078 ft 145 kts 250°
2026-05-05 12:56 50.03560 8.48580 2692 ft 164 kts 261°
2026-05-05 12:57 50.03744 8.46784 3468 ft 177 kts 291°
2026-05-05 12:57 50.04338 8.45081 4239 ft 191 kts 307°
2026-05-05 12:57 50.05363 8.43722 4935 ft 202 kts 326°
2026-05-05 12:57 50.06600 8.42633 5026 ft 205 kts 330°
2026-05-05 12:58 50.07905 8.41795 5001 ft 202 kts 346°
2026-05-05 12:58 50.09331 8.41752 5003 ft 220 kts
2026-05-05 12:58 50.10876 8.42263 5006 ft 232 kts 12°
2026-05-05 12:58 50.12462 8.42797 5010 ft 233 kts 11°
2026-05-05 12:59 50.14073 8.43295 5011 ft 234 kts 11°
2026-05-05 12:59 50.15661 8.43776 5009 ft 234 kts 12°
2026-05-05 12:59 50.17192 8.44617 5011 ft 234 kts 32°
2026-05-05 13:00 50.19039 8.48833 5027 ft 264 kts 71°
2026-05-05 13:00 50.19672 8.51586 5013 ft 273 kts 70°
2026-05-05 13:01 50.21695 8.59948 5038 ft 275 kts 70°
2026-05-05 13:01 50.22379 8.62749 5006 ft 274 kts 70°
2026-05-05 13:01 50.23056 8.65501 5001 ft 275 kts 70°
2026-05-05 13:01 50.23731 8.68291 5004 ft 275 kts 70°
2026-05-05 13:02 50.24398 8.71090 4994 ft 274 kts 70°
2026-05-05 13:02 50.25058 8.73860 5004 ft 276 kts 70°
2026-05-05 13:02 50.25726 8.76662 4983 ft 273 kts 71°
2026-05-05 13:02 50.26095 8.79573 4984 ft 268 kts 93°
2026-05-05 13:03 50.25599 8.82243 4985 ft 250 kts 122°
2026-05-05 13:03 50.24520 8.84192 4982 ft 233 kts 141°
2026-05-05 13:03 50.23219 8.85570 4984 ft 219 kts 153°
2026-05-05 13:03 50.21841 8.86331 4985 ft 204 kts 171°
2026-05-05 13:04 50.20468 8.86616 4986 ft 191 kts 175°
2026-05-05 13:04 50.19207 8.86861 4989 ft 177 kts 173°
2026-05-05 13:04 50.18034 8.87139 4958 ft 161 kts 173°
2026-05-05 13:04 50.17005 8.87387 4917 ft 142 kts 173°
2026-05-05 13:05 50.16039 8.87619 4631 ft 141 kts 172°
2026-05-05 13:05 50.15076 8.87870 4317 ft 141 kts 173°
2026-05-05 13:05 50.14110 8.88097 4021 ft 140 kts 178°
2026-05-05 13:05 50.13197 8.87759 3973 ft 134 kts 216°
2026-05-05 13:06 50.12589 8.86664 3990 ft 136 kts 246°
2026-05-05 13:06 50.12240 8.85298 3991 ft 136 kts 248°
2026-05-05 13:06 50.11885 8.83958 3988 ft 135 kts 249°
2026-05-05 13:06 50.11546 8.82601 3987 ft 134 kts 249°
2026-05-05 13:07 50.11212 8.81218 3988 ft 136 kts 250°
2026-05-05 13:07 50.10882 8.79836 3938 ft 138 kts 250°
2026-05-05 13:07 50.10550 8.78437 3738 ft 138 kts 251°
2026-05-05 13:07 50.10224 8.77060 3515 ft 134 kts 251°
2026-05-05 13:08 50.09903 8.75705 3382 ft 133 kts 251°
2026-05-05 13:08 50.09578 8.74335 3173 ft 133 kts 251°
2026-05-05 13:08 50.09261 8.72995 2993 ft 133 kts 251°
2026-05-05 13:08 50.08940 8.71645 2812 ft 133 kts 251°
2026-05-05 13:09 50.08621 8.70300 2630 ft 132 kts 251°
2026-05-05 13:09 50.08305 8.68970 2455 ft 132 kts 251°
2026-05-05 13:09 50.07985 8.67620 2274 ft 131 kts 251°
2026-05-05 13:09 50.07669 8.66293 2097 ft 130 kts 250°
2026-05-05 13:10 50.07356 8.64982 1926 ft 131 kts 251°
2026-05-05 13:10 50.07040 8.63656 1750 ft 129 kts 250°
2026-05-05 13:10 50.06725 8.62331 1581 ft 131 kts 249°
2026-05-05 13:10 50.06411 8.61017 1407 ft 131 kts 250°
2026-05-05 13:11 50.06096 8.59696 1236 ft 131 kts 250°
2026-05-05 13:11 50.05793 8.58368 1028 ft 131 kts 252°
2026-05-05 13:11 50.05502 8.57012 859 ft 129 kts 248°
2026-05-05 13:11 50.05133 8.55740 666 ft 131 kts 244°
2026-05-05 13:12 50.04888 8.54381 580 ft 138 kts 264°
2026-05-05 13:12 50.04597 8.53090 1316 ft 127 kts 231°
2026-05-05 13:12 50.04028 8.51949 1837 ft 142 kts 246°
2026-05-05 13:12 50.03833 8.50463 2599 ft 148 kts 260°
2026-05-05 13:13 50.03567 8.48955 3352 ft 157 kts 251°
2026-05-05 13:13 50.03400 8.47218 3952 ft 180 kts 279°
2026-05-05 13:13 50.03939 8.45344 4038 ft 204 kts 305°
2026-05-05 13:13 50.05098 8.43894 4355 ft 235 kts 330°
2026-05-05 13:14 50.06489 8.42770 4959 ft 223 kts 332°
2026-05-05 13:14 50.07885 8.41844 5009 ft 214 kts 343°
2026-05-05 13:14 50.09316 8.41714 5001 ft 207 kts 10°
2026-05-05 13:14 50.10735 8.42238 5003 ft 208 kts 13°
2026-05-05 13:15 50.12221 8.42758 5009 ft 239 kts 11°
2026-05-05 13:15 50.13924 8.43269 5012 ft 253 kts 10°
2026-05-05 13:15 50.15648 8.43784 5007 ft 254 kts 13°
2026-05-05 13:15 50.17301 8.44717 5011 ft 257 kts 32°
2026-05-05 13:16 50.18546 8.46703 5014 ft 255 kts 62°
2026-05-05 13:16 50.19188 8.49245 5024 ft 255 kts 72°
2026-05-05 13:16 50.19756 8.51882 5019 ft 254 kts 71°
2026-05-05 13:16 50.20355 8.54452 5013 ft 255 kts 70°
2026-05-05 13:17 50.21011 8.57159 5010 ft 273 kts 70°
2026-05-05 13:17 50.21688 8.59938 5039 ft 275 kts 70°
2026-05-05 13:17 50.22369 8.62727 5004 ft 274 kts 69°
2026-05-05 13:17 50.23039 8.65486 5002 ft 274 kts 70°
2026-05-05 13:18 50.23710 8.68267 5003 ft 275 kts 70°
2026-05-05 13:18 50.24382 8.71057 4993 ft 274 kts 70°
2026-05-05 13:18 50.25049 8.73832 4996 ft 275 kts 70°
2026-05-05 13:18 50.25689 8.76628 4991 ft 273 kts 73°
2026-05-05 13:19 50.26076 8.79513 4983 ft 268 kts 89°
2026-05-05 13:19 50.25684 8.82211 4983 ft 249 kts 120°
2026-05-05 13:19 50.24608 8.84178 4981 ft 232 kts 143°
2026-05-05 13:19 50.23275 8.85477 4984 ft 217 kts 155°
2026-05-05 13:20 50.21920 8.86288 4989 ft 202 kts 168°
2026-05-05 13:20 50.20578 8.86592 4994 ft 186 kts 176°
2026-05-05 13:20 50.19334 8.86811 4972 ft 174 kts 173°
2026-05-05 13:20 50.18208 8.87100 5022 ft 153 kts 172°
2026-05-05 13:21 50.17208 8.87372 4991 ft 142 kts 173°
2026-05-05 13:21 50.16220 8.87583 4996 ft 142 kts 173°
2026-05-05 13:21 50.15234 8.87786 4990 ft 140 kts 173°
2026-05-05 13:21 50.14273 8.88037 5002 ft 140 kts 174°
2026-05-05 13:22 50.13303 8.87896 5007 ft 138 kts 202°
2026-05-05 13:22 50.12569 8.86981 4970 ft 138 kts 238°
2026-05-05 13:22 50.12227 8.85555 4835 ft 142 kts 253°
2026-05-05 13:22 50.11907 8.84114 4554 ft 141 kts 248°
2026-05-05 13:23 50.11564 8.82748 4303 ft 131 kts 250°
2026-05-05 13:23 50.11253 8.81394 4168 ft 133 kts 251°
2026-05-05 13:23 50.10925 8.80007 3965 ft 137 kts 250°
2026-05-05 13:23 50.10596 8.78633 3731 ft 135 kts 251°
2026-05-05 13:24 50.10272 8.77259 3574 ft 135 kts 251°
2026-05-05 13:24 50.09949 8.75898 3396 ft 133 kts 251°
2026-05-05 13:24 50.09629 8.74549 3204 ft 133 kts 251°
2026-05-05 13:24 50.09307 8.73190 3016 ft 134 kts 251°
2026-05-05 13:25 50.08989 8.71848 2837 ft 132 kts 251°
2026-05-05 13:25 50.08671 8.70510 2659 ft 132 kts 251°
2026-05-05 13:25 50.08355 8.69179 2479 ft 131 kts 251°
2026-05-05 13:25 50.08037 8.67843 2303 ft 131 kts 250°
2026-05-05 13:26 50.07722 8.66513 2129 ft 131 kts 250°
2026-05-05 13:26 50.07406 8.65193 1954 ft 130 kts 250°
2026-05-05 13:26 50.07096 8.63886 1783 ft 130 kts 250°
2026-05-05 13:26 50.06784 8.62582 1612 ft 130 kts 250°
2026-05-05 13:27 50.06466 8.61250 1437 ft 129 kts 250°
2026-05-05 13:27 50.06159 8.59943 1273 ft 130 kts 249°
2026-05-05 13:27 50.05838 8.58619 1095 ft 129 kts 249°
2026-05-05 13:27 50.05524 8.57322 928 ft 130 kts 251°
2026-05-05 13:28 50.05215 8.56006 756 ft 130 kts 250°
2026-05-05 13:28 50.04897 8.54688 585 ft 130 kts 249°
2026-05-05 13:28 50.04583 8.53361 417 ft 131 kts 251°
2026-05-05 13:28 50.04302 8.52198 363 ft 78 kts 246°
2026-05-05 13:29 50.04213 8.51835 360 ft 0 kts 251°
2026-05-05 13:29 50.04206 8.51802 360 ft 10 kts 251°
2026-05-05 13:29 50.04155 8.51656 360 ft 16 kts 230°
2026-05-05 13:29 50.04085 8.51522 363 ft 15 kts 227°
2026-05-05 13:30 50.04006 8.51413 363 ft 15 kts 220°
2026-05-05 13:30 50.03921 8.51304 362 ft 16 kts 221°
2026-05-05 13:30 50.03831 8.51186 360 ft 17 kts 213°
2026-05-05 13:30 50.03716 8.51166 359 ft 16 kts 154°
2026-05-05 13:31 50.03648 8.51312 359 ft 17 kts 117°
2026-05-05 13:31 50.03589 8.51488 356 ft 19 kts 117°
2026-05-05 13:31 50.03529 8.51675 356 ft 19 kts 112°
2026-05-05 13:31 50.03520 8.51884 355 ft 20 kts 81°
2026-05-05 13:32 50.03537 8.52120 348 ft 24 kts 85°
2026-05-05 13:32 50.03569 8.52386 345 ft 25 kts 70°
2026-05-05 13:32 50.03602 8.52654 345 ft 24 kts 76°
2026-05-05 13:32 50.03616 8.52907 346 ft 23 kts 99°
2026-05-05 13:33 50.03547 8.53112 344 ft 20 kts 95°
2026-05-05 13:33 50.03582 8.53323 346 ft 19 kts 70°
2026-05-05 13:33 50.03627 8.53510 349 ft 18 kts 69°
2026-05-05 13:33 50.03672 8.53695 350 ft 18 kts 70°
2026-05-05 13:34 50.03718 8.53879 350 ft 18 kts 70°
2026-05-05 13:34 50.03765 8.54082 347 ft 21 kts 72°
2026-05-05 13:34 50.03834 8.54283 345 ft 20 kts 22°
2026-05-05 13:34 50.03868 8.54410 345 ft 12 kts 102°
2026-05-05 13:35 50.03805 8.54488 343 ft 12 kts 159°
2026-05-05 13:35 50.03796 8.54493 343 ft 0 kts 159°